Weather in Kopnino

Russia / Vladimir Oblast     55°55′29″N   41°37′33″E
temp.,
°C
wind,
m/s
gust,
m/s
humid.,
%
clouds,
%
prec.,
mm/h
press.,
hPa
HPBL,
m
25 february, thu
thu2500:00−17s4995100 0.4 1030418
03:00−16s41096100 0.9 1027457
06:00−15s51195100 2.1 1023457
09:00−13s51294100 3.7 1018449
12:00−10s5994100 3.4 1014383
15:00−7s3596100 4.4 1012194
18:00−3wsw1398100 0.4 1011106
21:00+1wnw2799100 0.6 1012205
26 february, fri
fri2600:00+1w3898100 0.1 1011334
03:00+1w3897100 0.1 1011338
06:00+1sw2499100 0.4 1009134
09:00+1sw3799100 1.1 1007195
12:00+2wsw411100100 1.4 1004371
15:00+3wsw514100100 1.8 1001551
18:00+2w61598100 2.1 998744
21:00+2w6149198 2.4 998891
27 february, sat
sat2700:000w6139699 0.1 9971066
03:00+1wnw71396100 0.4 9971045
06:000wnw61397100 0.5 996900
09:000nw61297100 1.6 997790
12:00−5nnw5989100 0.8 999668
15:00−7nnw5988100 1.0 1002775
18:00−9nnw4991100 0.2 1004666
21:00−10n3994100 0.3 1008581
28 february, sun
sun2800:00−12nnw3796100 0.1 1009317
03:00−14nnw379596 0.1 1012251
06:00−15nnw379554 0.0 1013254
09:00−14nnw379246 0.0 1014326
12:00−10nnw478880 0.0 1016512
15:00−8nnw478890 0.1 1017650
18:00−9nnw3992100 0.1 1018589
21:00−10n3994100 0.1 1021418
1 march, mon
mon100:00−13nnw239648 0.0 102371
03:00−13nnw239652 0.0 102439
06:00−13nw229786 0.0 102520
09:00−11wnw129690 0.1 1026108
12:00−5w248988 0.0 1026372
15:00−3w368986 0.0 1024538
18:00−3wsw4992100 0.0 1023444
21:00−2wsw51194100 0.1 1020612